Location: Kimberly
(42.5380°N, 114.3640°W)
Time: 12:26:40
(UTC-06:00)

N. Korean satellite - Visible Passes

Search period start: 19 October 2017 00:00
Search period end: 29 October 2017 00:00
Orbit: 459 x 517 km, 97.2° (Epoch: 18 October)

Date Brightness Start Highest point End Pass type
(mag) Time Alt. Az. Time Alt. Az. Time Alt. Az.
19 Oct 8.4 20:10:47 10° SSW 20:13:59 33° W 20:17:11 10° NNW visible
20 Oct 6.8 19:47:07 10° S 19:50:36 70° WSW 19:54:05 10° NNW visible
21 Oct 6.6 19:23:52 10° SSE 19:27:18 55° ENE 19:30:42 10° N visible
22 Oct 9.6 20:35:16 10° SW 20:37:36 17° W 20:39:56 10° NW visible
23 Oct 8.4 20:10:58 10° SSW 20:14:07 32° W 20:17:17 10° NNW visible
24 Oct 6.8 19:47:16 10° S 19:50:44 68° W 19:54:11 10° NNW visible
25 Oct 6.5 19:24:00 10° SSE 19:27:24 55° ENE 19:30:48 10° N visible
26 Oct 9.6 20:35:26 10° SW 20:37:42 16° W 20:39:59 10° NW visible
27 Oct 8.4 20:11:06 10° SSW 20:14:13 31° W 20:17:21 10° NNW visible
28 Oct 6.8 19:47:22 10° S 19:50:48 67° WSW 19:54:15 10° NNW visible
